2023/08/27 00:00:00, 0.1,22.8
2023/08/27 00:10:00, 0.1,22.6
2023/08/27 00:20:00, 0.1,23.0
2023/08/27 00:30:00, 0.1,23.1
2023/08/27 00:40:00, 0.1,23.1
2023/08/27 00:50:00, 4.0,23.4
2023/08/27 01:00:00, 8.0,23.4
2023/08/27 01:10:00, 7.4,23.5
2023/08/27 01:20:00, 7.0,23.6
2023/08/27 01:30:00, 6.0,23.7
2023/08/27 01:40:00, 4.9,23.6
2023/08/27 01:50:00, 0.4,23.6
2023/08/27 02:00:00, 0.2,23.3
2023/08/27 02:10:00, 0.2,23.6
2023/08/27 02:20:00, 0.2,23.3
2023/08/27 02:30:00, 0.2,23.2
2023/08/27 02:40:00, 0.2,23.0
2023/08/27 02:50:00, 0.2,23.1
2023/08/27 03:00:00, 0.2,23.1
2023/08/27 03:10:00, 0.2,23.0
2023/08/27 03:20:00, 2.1,23.0
2023/08/27 03:30:00, 7.6,22.6
2023/08/27 03:40:00, 8.5,23.0
2023/08/27 03:50:00, 9.0,22.6
2023/08/27 04:00:00, 9.2,22.6
2023/08/27 04:10:00, 9.2,22.5
2023/08/27 04:20:00, 9.4,22.6
2023/08/27 04:30:00,10.1,22.6
2023/08/27 04:40:00,10.0,22.3
2023/08/27 04:50:00, 9.8,22.5
2023/08/27 05:00:00, 9.4,22.2
2023/08/27 05:10:00, 8.9,22.2
2023/08/27 05:20:00, 8.2,22.3
2023/08/27 05:30:00, 7.3,22.3
2023/08/27 05:40:00, 6.5,22.1
2023/08/27 05:50:00, 6.0,22.0
2023/08/27 06:00:00, 5.8,22.0
2023/08/27 06:10:00, 5.8,22.3
2023/08/27 06:20:00, 5.7,22.3
2023/08/27 06:30:00, 5.4,22.7
2023/08/27 06:40:00, 5.3,23.0
2023/08/27 06:50:00, 5.1,23.6
2023/08/27 07:00:00, 4.6,23.8
2023/08/27 07:10:00, 2.0,24.4
2023/08/27 07:20:00, 0.3,25.5
2023/08/27 07:30:00, 0.3,26.1
2023/08/27 07:40:00, 0.3,27.1
2023/08/27 07:50:00, 0.3,27.9
2023/08/27 08:00:00, 0.4,29.7
2023/08/27 08:10:00, 0.5,31.0
2023/08/27 08:20:00, 0.5,31.4
2023/08/27 08:30:00, 1.4,31.1
2023/08/27 08:40:00, 3.9,31.3
2023/08/27 08:50:00, 4.3,31.7
2023/08/27 09:00:00, 4.4,32.8
2023/08/27 09:10:00, 4.5,33.3
2023/08/27 09:20:00, 4.9,33.3
2023/08/27 09:30:00, 5.3,33.3
2023/08/27 09:40:00, 5.3,32.8
2023/08/27 09:50:00, 4.9,32.7
2023/08/27 10:00:00, 4.1,32.5
2023/08/27 10:10:00, 4.1,32.3
2023/08/27 10:20:00, 4.3,32.5
2023/08/27 10:30:00, 4.5,32.6
2023/08/27 10:40:00, 4.7,32.3
2023/08/27 10:50:00, 5.0,32.2
2023/08/27 11:00:00, 5.0,32.6
2023/08/27 11:10:00, 4.8,32.7
2023/08/27 11:20:00, 4.8,32.7
2023/08/27 11:30:00, 4.8,33.1
2023/08/27 11:40:00, 4.6,33.5
2023/08/27 11:50:00, 4.5,33.7
2023/08/27 12:00:00, 4.9,33.3
2023/08/27 12:10:00, 5.0,33.0
2023/08/27 12:20:00, 5.0,33.1
2023/08/27 12:30:00, 4.9,33.2
2023/08/27 12:40:00, 5.0,33.5
2023/08/27 12:50:00, 5.1,33.4
2023/08/27 13:00:00, 5.1,33.6
2023/08/27 13:10:00, 5.0,33.5
2023/08/27 13:20:00, 5.0,33.8
2023/08/27 13:30:00, 5.1,34.6
2023/08/27 13:40:00, 5.2,34.5
2023/08/27 13:50:00, 4.9,34.1
2023/08/27 14:00:00, 4.8,34.5
2023/08/27 14:10:00, 4.8,34.7
2023/08/27 14:20:00, 4.7,34.4
2023/08/27 14:30:00, 4.8,34.2
2023/08/27 14:40:00, 4.5,33.7
2023/08/27 14:50:00, 4.7,33.9
2023/08/27 15:00:00, 4.8,33.5
2023/08/27 15:10:00, 4.7,33.1
2023/08/27 15:20:00, 4.7,32.8
2023/08/27 15:30:00, 4.4,32.7
2023/08/27 15:40:00, 4.4,32.9
2023/08/27 15:50:00, 4.6,33.1
2023/08/27 16:00:00, 4.8,32.9
2023/08/27 16:10:00, 4.9,33.0
2023/08/27 16:20:00, 4.9,34.8
2023/08/27 16:30:00, 5.0,37.0
2023/08/27 16:40:00, 5.1,38.3
2023/08/27 16:50:00, 5.3,38.7
2023/08/27 17:00:00, 5.3,34.1
2023/08/27 17:10:00, 5.3,30.8
2023/08/27 17:20:00, 5.1,32.3
2023/08/27 17:30:00, 4.9,32.8
2023/08/27 17:40:00, 4.8,30.0
2023/08/27 17:50:00, 4.6,28.6
2023/08/27 18:00:00, 4.3,27.8
2023/08/27 18:10:00, 4.0,27.3
2023/08/27 18:20:00, 3.7,26.8
2023/08/27 18:30:00, 3.5,26.6
2023/08/27 18:40:00, 3.3,26.7
2023/08/27 18:50:00, 3.2,26.3
2023/08/27 19:00:00, 3.1,26.3
2023/08/27 19:10:00, 3.0,25.8
2023/08/27 19:20:00, 2.9,25.6
2023/08/27 19:30:00, 2.7,25.3
2023/08/27 19:40:00, 2.7,25.4
2023/08/27 19:50:00, 2.5,25.0
2023/08/27 20:00:00, 2.6,24.7
2023/08/27 20:10:00, 2.8,24.8
2023/08/27 20:20:00, 3.1,24.8
2023/08/27 20:30:00, 3.5,24.9
2023/08/27 20:40:00, 4.1,24.6
2023/08/27 20:50:00, 4.9,24.3
2023/08/27 21:00:00, 2.5,24.3
2023/08/27 21:10:00, 0.2,24.2
2023/08/27 21:20:00, 0.2,24.3
2023/08/27 21:30:00, 0.2,24.2
2023/08/27 21:40:00, 0.2,24.5
2023/08/27 21:50:00, 0.2,24.3
2023/08/27 22:00:00, 0.2,24.2
2023/08/27 22:10:00, 0.2,24.3
2023/08/27 22:20:00, 0.2,24.1
2023/08/27 22:30:00, 0.2,23.9
2023/08/27 22:40:00, 0.2,24.0
2023/08/27 22:50:00, 0.2,24.1
2023/08/27 23:00:00, 0.2,24.0
2023/08/27 23:10:00, 0.2,24.0
2023/08/27 23:20:00, 0.2,23.7
2023/08/27 23:30:00, 0.2,24.0
2023/08/27 23:40:00, 0.2,23.6
2023/08/27 23:50:00, 0.2,23.3
